Hourly Data Report for November 02, 2020

CARBERRY CS
MANITOBA
Current Station Operator: ECCC - MSC

49°54'20.900" N
99°21'26.800" W
383.50 m
5010547
71170
WZE

Download Data

Hourly Data (November 2020)
Hourly Data Report for November 2, 2020
TIME
LST
Temp Definition
°C
Dew Point Definition
°C
Rel Hum Definition
%
Precip. Amount Definition
mm

Wind Dir Definition
10's deg

Wind Spd Definition
km/h
Visibility Definition
km
Stn Press Definition
kPa
Hmdx Definition


Wind Chill Definition


Weather Definition


00:00 2.8 -3.4 64 0.0 26 22   96.97     LegendNANA
01:00 1.7 -3.4 69 0.0 27 18   97.02     LegendNANA
02:00 0.7 -3.7 72 0.0 25 10   97.05     LegendNANA
03:00 0.5 -3.5 74 0.0 20 11   97.02     LegendNANA
04:00 -0.9 -4.1 79 0.0 19 6   97.01   -3 LegendNANA
05:00 1.5 -3.3 70 0.0 24 14   97.02     LegendNANA
06:00 1.2 -3.3 72 0.0 25 18   97.03     LegendNANA
07:00 1.0 -3.3 73 0.0 26 18   97.02     LegendNANA
08:00 1.0 -3.1 74 0.0 23 13   97.02     LegendNANA
09:00 3.2 -2.3 67 0.0 24 16   97.00     LegendNANA
10:00 5.2 -1.5 62 0.0 24 17   97.04     LegendNANA
11:00 7.8 -0.4 56 0.0 23 13   96.99     LegendNANA
12:00 10.0 0.1 50 0.0 24 18   96.93     LegendNANA
13:00 14.3 1.6 42 0.0 26 14   96.83     LegendNANA
14:00 16.0 1.6 38 0.0 22 13   96.74     LegendNANA
15:00 17.4 1.7 35 0.0 23 13   96.61     LegendNANA
16:00 15.6 2.2 40 0.0 20 13   96.54     LegendNANA
17:00 12.9 1.4 45 0.0 20 12   96.53     LegendNANA
18:00 11.9 1.5 49 0.0 19 16   96.41     LegendNANA
19:00 12.0 1.2 48 0.0 19 18   96.32     LegendNANA
20:00 11.1 1.1 50 0.0 20 17   96.25     LegendNANA
21:00 9.4 0.6 54 0.0 21 14   96.14     LegendNANA
22:00 7.9 0.4 59 0.0 20 13   96.04     LegendNANA
23:00 7.8 0.4 59 0.0 23 10   95.97     LegendNANA

Notes on Data Quality.

Legend

  • E = Estimated
  • M = Missing
  • NA = Not Available*
  • [empty] = Indicates an unobserved value
Date modified: